Location: Newark
(40.7060°N, 73.9980°W)
Time: 13:52:05
(UTC+00:00)

X-37B - Pass Details

Date: 15 March 2021
Orbit: 380 x 394 km, 45.0° (Epoch: 07 April)

Event Time Altitude Azimuth Distance (km) Brightness Sun altitude
Rises 00:06:39 0° 258° (WSW) 2,264 5.9 -13.0°
Reaches altitude 10° 00:08:44 10° 262° (W) 1,413 4.7 -13.4°
Maximum altitude 00:11:52 58° 343° (NNW) 458 1.0 -14.0°
Enters shadow 00:13:40 23° 57° (ENE) 891 2.0 -14.3°
